COSMOS 1844

Last updated on Fri Feb 06 2026 00:02:15 GMT+0000 (Coordinated Universal Time)

1 17973U 87041A 26036.57866823 .00000349 00000+0 20606-3 0 9991 2 17973 70.8981 101.9097 0028786 69.5429 290.8779 14.14538106999041
UTC large
Height (km)
Speed (km/s)
/
Latitude / Longitude
Inclination (degrees)
Orbital Period (minutes)
Azimuth
Elevation
Range (km)
Doppler Factor

Next 0 passes for location: London (51.5072 / 0.1276)

Sorry there are no passes over London.